Regional Weather Roundup
Issued by NWS

Home | Current Version | Previous Version | Text Only | Print | Product List | Glossary On
Versions: 1 2 3 4 5 6 7 8 9 10 11 12 13 14 15 16 17 18 19 20 21 22 23 24 25 26 27 28 29 30 31 32 33 34 35 36 37 38 39 40 41 42 43 44 45 46 47 48 49 50
410
ASUS43 KDTX 060710
RWRMI
MICHIGAN HOURLY REGIONAL WEATHER ROUNDUP
NATIONAL WEATHER SERVICE DETROIT/PONTIAC MI
300 AM EDT FRI MAY 06 2016

NOTE: "FAIR" INDICATES FEW OR NO CLOUDS BELOW 12,000 FEET WITH NO
SIGNIFICANT WEATHER AND/OR OBSTRUCTION TO VISIBILITY.

MIZ047>049-052>055-059>063-066>070-074>076-081>083-060800-
SOUTHEAST LOWER MICHIGAN

CITY           SKY/WX    TMP DP  RH WIND       PRES   REMARKS
ADRIAN         CLOUDY    50  43  77 N5        29.93S
ALMA           CLEAR     41  40  98 W9        29.94S
BAD AXE        CLEAR     37  36  97 CALM      29.92S
CARO           CLEAR     39  38  97 CALM      29.92S FOG
DETROIT CITY   CLEAR     49  33  54 N6        29.91S
DETROIT        PTCLDY    49  35  58 NW6       29.91S
FLINT          CLEAR     49  40  71 W3        29.93S
GROSSE ILE     PTCLDY    48  37  66 NW6       29.90R
HILLSDALE      CLEAR     47  38  69 CALM      29.93S
HOWELL         CLEAR     47  40  76 CALM      29.92F

CITY           SKY/WX    TMP DP  RH WIND       PRES   REMARKS
JACKSON        CLEAR     46  42  86 W3        29.93F
LAMBERTVILLE   MOCLDY    45  40  82 CALM      29.92S
LANSING        CLEAR     44  42  93 CALM      29.94S
LAPEER         FAIR      39  37  92 CALM      29.92S
MASON          CLEAR     44  42  91 CALM      29.93F
MONROE         CLEAR     47  37  68 CALM      29.90S
MT. CLEMENS    CLEAR     44  36  72 N2        29.90R
PONTIAC        CLEAR     47  37  68 N3        29.90F
PORT HURON     CLEAR     41  39  93 NW3       29.91S
TRI CITIES     CLEAR     46  40  79 W3        29.93F
MIDLAND        FAIR      40  39  98 CALM      29.93S
TROY           CLEAR     52  33  49 NW7       29.92S
SAGINAW HB     CLEAR     43  41  93 W3        29.93S
$$
MIZ043>046-050>051-056>058-064>065-071>073-077>080-060800-
SOUTHWEST LOWER MICHIGAN

CITY           SKY/WX    TMP DP  RH WIND       PRES   REMARKS
BATTLE CREEK   CLEAR     46  37  71 W3        29.95S
BENTON HARBOR  CLEAR     37  35  92 CALM      29.97F
BIG RAPIDS     CLEAR     38  34  84 CALM      29.94S
COLDWATER      CLEAR     44  38  82 CALM      29.94S
FREMONT        FAIR      37  36  97 W3        29.95S
HOLLAND        CLEAR    N/A N/A N/A CALM      29.97S
GRAND RAPIDS   CLEAR     46  39  76 W5        29.94F
IONIA          FAIR      47  39  74 CALM      29.92F
KALAMAZOO      CLEAR     44  34  67 NW5       29.95F
LUDINGTON      CLOUDY    40  38  90 SW3       29.95S
MARSHALL       CLEAR     44  39  82 CALM      29.93F
MOUNT PLEASANT CLEAR     42  41  95 CALM      29.93F
MUSKEGON       CLEAR     37  34  89 W3        29.96S
SOUTH HAVEN    CLEAR     37  37  97 CALM      29.97S
$$
MIZ016>042-060800-
NORTHERN LOWER MICHIGAN

CITY           SKY/WX    TMP DP  RH WIND       PRES   REMARKS
ALPENA         CLEAR     42  37  82 CALM      29.92F
BEAVER ISLAND  CLEAR     35  33  92 CALM      29.93S
BELLAIRE       PTCLDY    37  36  94 CALM      29.94S
CADILLAC       CLEAR     34  32  95 CALM      29.93F
CHARLEVOIX     PTCLDY    38  36  92 SE3       29.95F
FRANKFORT      CLEAR     37  34  91 CALM      29.94S
GAYLORD        MOCLDY    40  36  86 W3        29.93R
GRAYLING       MOCLDY    33  32  96 CALM      29.94S
HARBOR SPRINGS PTCLDY    39  35  86 CALM      29.93F
HOUGHTON LAKE  PTCLDY    39  37  92 CALM      29.93F
MANISTEE       PTCLDY    34  30  86 CALM      29.95S
OSCODA         PTCLDY    38  33  81 CALM      29.92S
PELLSTON       PTCLDY    37  34  89 CALM      29.93F
ROGERS CITY    PTCLDY    44  38  79 SW5       29.93S
TRAVERSE CITY  CLEAR     38  35  89 CALM      29.92S
$$
MIZ007>008-015-060800-
EASTERN UPPER MICHIGAN

CITY           SKY/WX    TMP DP  RH WIND       PRES   REMARKS
KINROSS          N/A     43  36  75 W6        29.91F
MACKINAC ISLAN PTCLDY    41  36  80 W7        29.92F
NEWBERRY       PTCLDY    41  37  85 S6        29.90F
S. S. MARIE    MOCLDY    41  34  76 CALM      29.91S
MUNISING         N/A     49  35  58 S9        29.86S
$$
MIZ004>006-011>014-085-060800-
CENTRAL UPPER MICHIGAN

CITY           SKY/WX    TMP DP  RH WIND       PRES   REMARKS
MANISTIQUE     CLEAR     41  38  90 S5        29.90S
ESCANABA       CLOUDY    45  39  81 CALM      29.89S
MENOMINEE      CLOUDY    52  43  71 SE6       29.89F
SAWYER-GWINN   CLEAR     46  37  70 S7        29.85F
$$
MIZ001>003-009>011-084-060800-
WESTERN UPPER MICHIGAN

CITY           SKY/WX    TMP DP  RH WIND       PRES   REMARKS
IRON MOUNTAIN  CLOUDY    49  39  68 CALM      29.85F
HOUGHTON       CLEAR     45  34  65 CALM      29.79F
IRONWOOD         N/A     59  37  44 S5        29.79F
$$

ABBREVIATIONS USED IN REMARKS
   TC - TEMPERATURE IN CELSIUS
  WCI - WIND CHILL INDEX
   HX - HEAT INDEX
  VSB - VISIBILITY





USA.gov is the U.S. government's official web portal to all federal, state and local government web resources and services.